Temperature
11 11 11 11 11 10 10 10 10 10 10 10 10 10 10 10 10 10 10 10 10 10 10 11 11 11 10 10 10 10 10 10 10 10 10 10 10 10 10 10 9 9 9
11 10 10 10 10 10 10 10 10 10 10 10 10 10 10 9 9 10 10 10 10 10 10 10 10 10 10 10 10 10 10 10 10 9 9 9 9 9 9 9 9 9 9
10 10 10 10 10 10 10 9 9 9 9 9 9 9 9 9 9 9 9 9 9 9 10 10 10 10 10 9 9 9 9 9 9 9 9 9 9 9 9 9 9 9 9
10 10 9 9 9 9 9 9 9 9 9 9 9 9 8 9 9 9 9 9 9 9 9 9 9 9 9 9 9 9 9 9 9 9 9 9 9 9 8 8 8 8 8
9 9 9 9 9 9 9 9 9 8 8 8 8 8 8 8 8 8 8 9 9 9 9 9 9 9 9 9 9 9 9 9 9 8 8 8 8 8 8 8 8 8 8
9 8 8 8 8 8 8 8 8 8 8 8 7 7 8 8 8 8 8 8 8 8 8 8 8 8 8 8 8 8 8 8 8 8 8 8 8 8 8 8 8 8 8
8 8 8 8 8 8 8 8 8 7 7 7 7 7 7 7 7 7 7 8 8 8 8 8 8 8 8 8 8 8 8 8 8 8 8 8 8 8 8 7 7 7 7
7 7 7 7 7 7 7 7 7 7 7 6 6 6 6 6 7 7 7 7 7 7 7 7 8 8 8 8 8 8 8 8 8 8 8 8 7 7 7 7 7 7 7
7 7 7 7 7 7 7 7 7 7 6 6 6 6 6 6 6 6 7 7 7 7 7 7 7 7 7 7 7 7 7 7 7 7 7 7 7 7 7 7 7 7 7
6 6 6 6 6 6 6 6 6 6 6 6 6 6 6 6 6 5 6 6 6 6 7 7 7 7 7 7 7 7 7 7 7 7 7 7 7 6 6 6 6 6 6
6 6 6 6 6 6 6 6 5 5 6 6 5 5 5 5 5 5 5 6 6 6 6 6 6 6 6 6 6 6 6 7 7 7 7 6 6 6 6 6 6 6 6
5 5 5 5 5 5 5 5 5 5 5 5 5 5 5 5 5 5 5 5 5 6 6 6 6 6 6 6 6 6 6 6 6 6 6 6 6 6 6 6 6 6 6
5 5 5 4 5 5 5 4 4 4 4 4 4 4 4 4 4 4 4 4 4 5 5 5 5 5 5 5 5 5 5 5 5 5 5 5 5 5 5 5 5 5 5
4 4 4 4 4 4 4 4 4 4 4 4 4 4 4 4 4 4 4 3 3 3 4 4 5 5 5 5 5 5 5 5 5 5 5 5 5 5 5 5 5 4 4
3 3 3 3 3 3 3 3 3 3 3 3 3 3 3 3 3 3 3 3 3 2 2 4 4 4 4 4 4 4 4 4 4 4 4 4 4 4 4 4 4 4 4
3 3 3 3 3 3 3 3 3 3 3 3 3 2 2 2 2 2 2 2 2 2 2 3 3 4 4 4 4 4 4 4 4 4 4 4 4 4 4 4 4 4 3
2 2 2 2 2 2 2 2 2 2 2 2 2 2 2 2 2 2 2 2 2 2 2 2 3 3 3 3 3 3 3 3 3 3 3 3 3 3 3 3 3 3 3
2 2 1 2 1 1 1 1 1 1 1 2 1 1 1 1 1 1 1 1 1 1 1 1 2 2 2 2 2 2 2 2 2 2 3 2 2 3 3 2 2 2 2
1 1 1 1 1 1 1 1 1 1 1 1 1 1 1 0 0 0 0 0 1 1 0 0 1 1 1 1 1 2 2 2 2 2 2 2 2 2 2 2 2 2 2
0 0 0 0 0 0 0 -0 0 -0 -0 -0 -0 -0 -0 -0 -0 -0 -0 -0 -0 -0 -0 -1 -1 -0 -0 0 0 1 1 1 2 2 2 2 1 1 2 2 2 1 1
-0 -0 -0 -0 -0 -1 -1 -1 -1 -1 -1 -1 -1 -1 -1 -1 -1 -1 -1 -1 -1 -1 -1 -1 -1 -1 -1 -1 -1 -0 -0 0 1 1 1 1 1 1 1 1 1 1 1
-1 -1 -1 -1 -1 -1 -1 -1 -1 -1 -2 -2 -1 -1 -1 -1 -1 -2 -2 -2 -2 -2 -2 -2 -2 -2 -2 -2 -1 -1 -1 -1 -1 -0 -0 0 0 0 1 1 1 1 1
-2 -2 -2 -2 -2 -2 -2 -2 -2 -2 -2 -2 -2 -2 -2 -2 -2 -2 -2 -2 -3 -3 -3 -3 -3 -2 -2 -2 -2 -2 -2 -2 -2 -1 -1 -1 -0 -0 -0 0 0 0 -0
-3 -3 -3 -3 -3 -3 -3 -3 -3 -3 -3 -3 -3 -3 -3 -3 -3 -3 -3 -3 -3 -3 -3 -3 -3 -3 -3 -3 -3 -3 -3 -3 -3 -2 -2 -2 -1 -1 -1 -1 -1 -0 -1
-3 -3 -3 -3 -3 -3 -3 -4 -4 -4 -4 -4 -4 -3 -3 -3 -3 -3 -4 -4 -4 -3 -3 -4 -4 -4 -4 -4 -4 -4 -4 -4 -4 -3 -3 -3 -2 -2 -2 -1 -1 -1 -1
-4 -4 -4 -4 -4 -4 -4 -4 -5 -5 -5 -4 -4 -4 -4 -4 -4 -4 -4 -4 -4 -4 -4 -4 -4 -4 -4 -4 -4 -4 -5 -5 -4 -4 -4 -4 -3 -3 -3 -3 -2 -2 -2
Wind_Speed
5 5 5 5 5 5 6 6 6 7 7 7 7 7 6 7 7 7 6 8 8 8 8 8 8 8 8 8 8 8 8 8 8 8 8 8 8 8 8 8 8 8 8
6 5 5 4 4 4 5 6 6 6 5 5 5 5 6 5 6 6 6 6 7 8 8 8 8 8 8 8 8 8 7 7 7 7 7 7 7 7 7 7 7 7 6
7 6 5 4 4 5 6 6 6 6 5 5 4 4 4 5 5 5 5 5 6 7 8 7 8 7 8 8 7 7 7 6 6 6 6 6 6 6 6 6 6 6 5
7 6 5 4 4 5 6 5 4 3 3 3 2 2 3 4 4 5 5 5 5 6 7 7 6 6 6 7 7 6 6 6 5 5 5 5 6 5 5 5 5 5 5
8 6 5 4 5 5 4 4 3 3 3 2 2 1 2 2 2 4 4 4 5 5 5 6 6 5 5 5 5 6 5 5 4 4 5 5 5 5 4 4 4 4 4
7 7 5 5 5 4 3 3 3 3 3 3 2 2 1 1 1 2 3 4 4 4 5 5 5 4 4 5 5 5 5 5 4 4 4 4 5 5 4 4 4 4 4
6 6 5 5 5 4 4 4 3 3 2 2 2 2 2 2 1 0 2 2 2 3 5 5 5 5 4 4 5 5 5 5 4 3 3 3 5 5 5 5 4 4 3
5 6 6 5 5 3 4 4 4 3 2 2 2 2 0 1 2 1 1 1 2 2 3 5 5 5 5 4 4 5 5 5 5 4 4 4 4 5 5 5 5 5 4
5 6 6 6 5 5 5 5 5 4 4 2 1 3 3 3 1 2 2 1 1 1 2 3 4 5 6 5 4 5 6 6 6 6 5 4 4 5 5 5 6 6 5
4 5 7 6 6 5 5 5 4 3 5 4 1 0 1 2 2 1 2 2 2 2 2 3 4 5 5 5 5 5 5 6 6 7 7 6 5 6 5 6 6 6 6
4 4 6 6 5 4 5 5 4 4 4 4 3 1 1 1 1 2 3 2 2 3 3 3 4 5 6 6 6 6 6 7 8 7 7 7 6 5 6 5 5 6 6
2 3 4 5 6 5 5 5 5 5 4 4 3 2 2 2 2 2 2 3 3 3 3 3 4 5 6 6 7 7 7 8 8 8 8 8 7 6 6 6 6 6 5
3 4 4 4 4 5 6 6 5 5 5 5 4 3 3 2 2 2 2 2 2 2 2 3 5 6 6 7 7 7 8 9 10 10 10 9 8 7 6 7 7 7 7
5 5 5 5 5 5 5 5 5 5 5 5 5 4 3 3 2 2 2 2 2 2 3 4 3 6 6 7 8 8 8 10 10 10 10 10 9 8 7 8 9 9 8
3 4 5 5 5 5 5 5 5 6 5 5 5 4 4 3 3 2 2 2 3 3 5 4 3 3 5 6 7 8 8 9 11 11 11 11 10 9 9 9 10 10 10
4 4 5 5 5 5 5 5 5 5 5 5 4 5 4 3 3 2 2 2 2 4 5 4 4 3 4 6 7 7 9 10 10 11 11 11 11 11 10 10 11 11 11
5 5 5 6 5 6 5 6 6 6 6 6 5 5 6 4 3 3 2 2 3 3 5 4 3 2 3 4 6 7 8 8 10 11 11 11 12 11 11 11 12 12 12
5 5 5 5 6 6 6 6 7 7 8 8 7 6 6 5 5 4 4 4 4 4 4 5 3 2 4 4 5 5 6 7 9 11 12 12 12 12 12 12 13 13 13
4 4 5 6 6 6 6 7 7 8 8 8 8 8 7 6 6 5 5 5 4 4 3 4 4 3 2 2 3 4 5 5 7 9 11 12 13 13 13 13 13 13 13
4 5 5 5 6 6 6 6 6 7 7 8 8 8 8 8 9 8 7 7 5 5 4 4 4 3 3 2 2 3 4 4 5 7 8 10 12 13 13 13 14 14 14
4 4 4 4 4 5 5 6 6 7 6 7 7 8 8 9 10 9 7 7 6 6 5 5 4 3 3 2 3 3 5 4 4 4 4 6 7 9 11 13 14 15 15
3 3 4 5 5 4 6 8 7 6 6 7 7 8 8 9 10 11 12 10 9 8 7 6 6 6 6 4 3 3 3 4 4 3 3 5 6 6 9 11 13 15 15
3 3 4 4 5 5 7 7 8 6 6 6 7 7 6 7 9 8 9 10 9 11 10 8 8 8 6 6 5 5 5 5 6 3 3 6 4 6 9 11 13 15 15
3 3 4 4 4 5 6 7 7 5 5 6 6 6 6 6 7 8 8 8 8 8 9 8 8 8 6 6 7 7 7 5 4 3 3 5 4 5 7 10 12 12 13
3 3 3 3 4 4 6 6 6 4 4 5 5 6 6 7 8 9 8 8 8 7 9 11 10 9 9 9 7 4 4 4 5 4 2 3 3 4 4 5 9 11 11
2 2 2 3 3 4 5 5 5 4 4 4 4 5 7 8 9 9 8 8 8 7 5 6 6 7 7 8 9 7 6 5 4 4 3 3 2 2 3 3 5 8 10
Wind_Direction
129 126 120 114 107 111 112 109 105 100 98 96 96 97 93 98 105 107 108 118 122 129 134 133 127 126 125 124 123 121 123 125 121 121 123 121 118 116 115 110 111 108 104
139 137 130 124 122 125 121 121 115 109 106 102 93 93 94 94 104 108 111 117 125 131 136 139 135 132 129 123 121 121 119 123 124 121 122 124 125 124 121 120 117 114 112
139 140 140 139 135 129 120 114 107 102 102 97 87 87 94 97 102 104 108 109 122 136 138 139 140 136 136 134 129 128 126 123 126 127 126 125 124 125 125 124 120 117 119
141 138 141 146 140 131 127 126 115 100 93 92 86 80 98 101 104 111 112 111 116 125 136 139 140 144 143 144 141 138 137 133 133 138 138 137 133 133 133 144 140 135 132
146 143 145 143 141 133 131 136 125 123 117 100 90 70 78 98 109 117 117 120 127 133 137 142 143 148 155 152 150 148 148 149 149 152 154 157 154 149 148 152 158 158 156
151 146 144 139 138 136 134 136 133 122 131 130 100 61 30 39 102 140 142 135 139 150 149 147 147 157 167 168 166 161 163 159 158 165 169 174 175 169 167 167 155 156 165
157 149 149 149 148 149 150 144 137 132 129 128 100 54 11 6 350 245 149 147 148 165 162 161 162 164 172 181 186 183 182 180 173 175 174 177 186 187 186 187 187 178 168
161 161 157 160 159 153 143 140 138 148 155 152 130 125 77 321 329 321 302 188 187 175 174 176 169 173 181 182 201 206 205 201 196 188 187 188 193 198 200 200 194 187 187
164 166 164 163 165 160 165 164 159 157 172 194 167 152 162 208 269 293 292 270 236 196 194 182 183 187 194 195 207 219 218 216 213 209 207 207 212 208 208 213 209 206 199
169 177 169 168 171 170 174 178 171 168 169 182 208 280 217 163 172 231 289 290 289 267 241 212 198 201 203 204 215 224 223 221 223 222 220 219 225 221 220 221 217 215 215
181 180 177 175 176 179 182 183 178 175 174 183 189 187 136 37 176 181 234 264 283 267 256 236 214 210 214 215 221 228 227 228 228 229 230 227 230 235 231 238 232 227 228
197 188 184 186 188 189 191 194 191 186 191 188 188 183 181 182 195 189 213 233 252 264 272 245 226 218 218 221 222 229 230 234 235 235 239 238 236 244 239 240 247 238 235
214 207 201 199 203 204 200 195 194 198 200 199 203 210 209 213 197 198 205 239 258 273 266 255 231 226 224 224 228 237 235 234 235 238 238 242 243 243 247 241 246 245 240
214 206 205 205 208 209 206 197 200 205 206 210 216 213 214 219 206 200 193 190 245 262 252 251 253 227 226 225 229 234 242 237 235 237 237 240 244 243 248 248 244 241 244
217 203 203 205 206 206 204 199 208 209 208 213 218 218 221 223 218 215 202 195 195 226 241 238 239 241 234 239 241 236 243 246 238 236 238 238 241 242 244 250 245 244 244
215 204 205 208 209 207 205 204 210 211 209 217 217 216 222 227 226 219 217 219 217 223 243 236 239 280 254 255 258 251 245 248 247 244 244 242 241 241 242 248 245 245 243
213 210 209 210 212 212 209 209 213 211 213 220 221 218 221 217 222 224 224 232 233 228 249 264 261 277 262 268 269 263 259 251 250 248 249 248 245 243 244 247 244 241 244
215 213 211 211 214 216 215 213 218 215 215 219 221 222 224 218 219 224 225 231 236 235 239 262 273 266 264 264 264 268 263 258 255 252 251 250 246 243 245 248 245 241 244
218 215 212 213 215 217 219 221 220 220 219 221 220 221 224 218 223 226 229 232 237 242 242 250 265 273 277 283 285 284 277 260 263 263 255 251 246 244 246 248 247 244 245
221 214 217 220 222 220 221 224 223 222 223 224 223 223 224 222 223 224 227 230 232 237 238 243 258 269 274 281 269 274 288 267 267 267 260 260 254 249 248 250 250 249 247
234 221 214 219 225 222 224 222 223 224 226 229 227 227 228 229 230 227 228 225 224 232 237 242 250 257 255 264 254 257 269 285 272 249 253 259 257 252 252 251 249 247 247
238 225 219 217 221 235 246 239 231 225 228 230 231 230 232 234 238 238 238 235 227 227 232 238 245 246 247 249 253 262 271 285 274 243 243 260 248 250 253 249 250 249 246
243 235 232 224 228 242 250 247 243 229 231 230 233 234 236 237 237 233 238 241 239 238 233 231 237 241 242 238 237 248 252 259 262 266 254 260 243 252 258 258 254 249 246
248 246 244 234 236 253 254 249 248 235 232 235 234 232 236 239 236 230 227 230 234 238 239 235 235 237 234 234 230 239 249 264 282 263 236 255 254 255 261 259 254 250 251
258 250 250 239 238 259 263 256 251 230 234 242 244 239 238 240 249 243 232 231 238 244 250 246 247 247 246 242 237 237 242 257 267 261 239 240 259 277 268 249 251 250 253
269 269 273 257 246 254 264 259 251 233 237 244 251 249 249 250 253 247 236 231 236 241 238 247 250 254 249 241 233 224 225 240 261 260 229 230 247 265 274 257 248 257 258
Height
1537 1538 1539 1540 1541 1541 1542 1543 1544 1544 1545 1547 1547 1548 1549 1550 1551 1551 1552 1553 1554 1555 1555 1556 1557 1557 1558 1559 1559 1560 1560 1561 1562 1562 1563 1563 1563 1564 1564 1564 1564 1565 1564
1535 1537 1538 1538 1539 1540 1541 1542 1542 1543 1544 1545 1546 1547 1547 1548 1549 1550 1551 1552 1553 1553 1554 1555 1556 1556 1557 1558 1558 1559 1559 1560 1561 1561 1562 1562 1563 1563 1564 1564 1564 1564 1564
1533 1534 1536 1537 1538 1539 1539 1540 1541 1542 1542 1543 1544 1545 1546 1547 1548 1549 1550 1550 1551 1552 1553 1554 1555 1555 1556 1556 1557 1557 1558 1559 1560 1560 1561 1561 1562 1562 1563 1563 1563 1563 1563
1531 1532 1533 1535 1536 1537 1538 1538 1539 1540 1540 1541 1542 1543 1544 1545 1546 1547 1548 1549 1550 1551 1552 1553 1553 1554 1554 1555 1556 1556 1557 1558 1558 1559 1559 1560 1560 1561 1562 1562 1562 1562 1562
1529 1530 1531 1532 1534 1534 1535 1536 1537 1538 1538 1539 1540 1541 1542 1543 1544 1545 1546 1547 1548 1549 1550 1551 1551 1552 1553 1553 1554 1555 1555 1556 1557 1557 1558 1558 1559 1559 1560 1560 1561 1561 1561
1525 1527 1528 1530 1531 1532 1533 1534 1534 1535 1536 1537 1538 1539 1540 1541 1542 1543 1544 1545 1546 1546 1547 1548 1549 1550 1551 1551 1552 1553 1553 1554 1555 1555 1556 1556 1557 1557 1558 1558 1559 1559 1559
1522 1524 1525 1527 1528 1529 1530 1531 1532 1533 1533 1535 1536 1537 1538 1539 1539 1540 1541 1542 1543 1544 1545 1546 1546 1547 1548 1549 1550 1551 1551 1552 1553 1553 1554 1554 1554 1555 1555 1556 1556 1556 1557
1519 1520 1522 1523 1525 1526 1527 1528 1529 1530 1531 1532 1533 1534 1535 1537 1536 1537 1538 1539 1540 1541 1542 1543 1543 1544 1545 1546 1547 1548 1549 1550 1550 1551 1551 1551 1552 1552 1553 1553 1554 1554 1554
1515 1517 1518 1520 1521 1523 1523 1524 1526 1527 1527 1529 1530 1532 1532 1532 1533 1534 1534 1536 1537 1538 1539 1540 1540 1541 1542 1543 1544 1545 1546 1547 1547 1548 1548 1548 1549 1549 1550 1550 1551 1551 1551
1511 1513 1514 1516 1518 1519 1520 1521 1522 1523 1524 1525 1526 1528 1530 1530 1530 1530 1531 1532 1533 1534 1535 1536 1537 1537 1538 1539 1540 1541 1542 1543 1544 1544 1545 1545 1545 1546 1546 1547 1547 1547 1548
1508 1509 1511 1512 1514 1515 1516 1517 1518 1520 1521 1521 1522 1523 1525 1526 1527 1527 1526 1528 1529 1530 1530 1532 1533 1533 1534 1535 1536 1537 1538 1539 1540 1540 1541 1541 1541 1542 1542 1543 1543 1543 1544
1504 1505 1507 1508 1510 1511 1512 1513 1515 1516 1517 1518 1519 1519 1520 1521 1522 1523 1523 1523 1524 1525 1526 1527 1528 1529 1530 1531 1532 1532 1533 1534 1535 1535 1536 1537 1537 1538 1538 1538 1539 1539 1539
1500 1501 1503 1504 1505 1506 1508 1509 1510 1512 1513 1514 1515 1516 1517 1518 1519 1520 1520 1520 1520 1520 1521 1522 1523 1524 1525 1526 1527 1528 1528 1529 1530 1530 1531 1532 1532 1533 1533 1534 1534 1534 1535
1495 1497 1498 1500 1501 1502 1503 1505 1506 1507 1509 1510 1511 1512 1513 1514 1515 1516 1517 1517 1517 1516 1516 1517 1518 1519 1520 1521 1522 1523 1523 1524 1525 1525 1526 1527 1527 1528 1528 1529 1529 1530 1530
1492 1492 1494 1495 1496 1497 1498 1500 1501 1502 1504 1505 1506 1507 1508 1510 1511 1512 1513 1513 1514 1512 1511 1512 1513 1514 1515 1516 1517 1517 1518 1519 1519 1520 1521 1521 1522 1522 1523 1523 1524 1525 1525
1487 1488 1488 1490 1491 1492 1493 1494 1496 1497 1498 1499 1501 1502 1503 1505 1506 1507 1508 1509 1509 1509 1507 1506 1508 1509 1510 1510 1511 1512 1512 1513 1514 1514 1515 1516 1516 1517 1517 1518 1519 1519 1520
1482 1482 1483 1484 1485 1486 1488 1489 1490 1491 1493 1494 1495 1496 1498 1499 1500 1501 1502 1503 1504 1504 1503 1502 1503 1504 1505 1505 1506 1506 1507 1507 1508 1508 1509 1510 1510 1511 1511 1512 1513 1514 1514
1477 1478 1478 1479 1480 1481 1482 1483 1484 1486 1487 1488 1489 1491 1492 1493 1494 1495 1496 1497 1498 1498 1498 1497 1497 1498 1499 1500 1500 1500 1501 1501 1502 1502 1503 1503 1504 1505 1505 1506 1507 1508 1508
1472 1472 1473 1474 1474 1475 1477 1478 1479 1480 1481 1482 1483 1484 1486 1487 1488 1489 1490 1491 1492 1492 1492 1492 1491 1492 1493 1493 1494 1494 1494 1495 1496 1496 1496 1497 1498 1498 1499 1499 1500 1501 1502
1466 1467 1468 1468 1469 1470 1471 1472 1473 1474 1475 1476 1477 1478 1479 1481 1482 1483 1484 1485 1486 1486 1486 1486 1486 1486 1486 1487 1487 1487 1487 1488 1489 1490 1490 1490 1491 1492 1492 1493 1494 1494 1495
1461 1462 1462 1463 1464 1465 1466 1467 1468 1468 1469 1470 1471 1472 1473 1475 1476 1477 1478 1478 1479 1480 1480 1479 1479 1480 1480 1480 1481 1481 1481 1481 1482 1483 1483 1484 1484 1485 1485 1486 1487 1488 1488
1456 1456 1457 1457 1458 1459 1460 1461 1462 1463 1463 1464 1465 1466 1467 1468 1469 1471 1472 1473 1474 1474 1474 1474 1473 1473 1473 1474 1475 1475 1475 1475 1474 1476 1476 1476 1478 1477 1478 1479 1480 1481 1481
1450 1451 1452 1452 1452 1453 1455 1456 1457 1457 1458 1458 1459 1459 1460 1461 1462 1464 1465 1466 1467 1467 1468 1468 1467 1467 1468 1469 1470 1470 1470 1469 1469 1470 1470 1469 1470 1470 1471 1472 1473 1474 1474
1445 1446 1446 1447 1447 1448 1449 1450 1451 1452 1452 1452 1453 1453 1454 1455 1456 1457 1458 1458 1459 1460 1461 1462 1462 1462 1463 1464 1465 1465 1464 1464 1463 1463 1464 1463 1463 1463 1464 1464 1465 1466 1467
1441 1441 1441 1441 1442 1442 1443 1444 1446 1446 1446 1446 1447 1447 1448 1448 1449 1451 1452 1452 1452 1453 1454 1455 1456 1456 1457 1458 1459 1459 1458 1458 1456 1456 1457 1457 1456 1456 1456 1457 1458 1459 1459
1436 1436 1436 1436 1437 1437 1438 1439 1440 1440 1440 1440 1441 1441 1442 1442 1443 1444 1445 1445 1445 1446 1447 1448 1449 1449 1450 1451 1452 1452 1452 1452 1450 1450 1450 1451 1450 1451 1449 1449 1451 1451 1452